﻿測定場所 (Monitoring sites),日付 (Measurement date),時間 (Measurement time),線量率 最大値 (max) μGy/h,線量率 最小値 (min) μGy/h,線量率 平均値 (average) μGy/h,
大田 (Ota),2018-10-21,23:01～24:00,0.0366,0.0326,0.0345,
大田 (Ota),2018-10-21,22:01～23:00,0.0363,0.0329,0.0344,
大田 (Ota),2018-10-21,21:01～22:00,0.0370,0.0318,0.0345,
大田 (Ota),2018-10-21,20:01～21:00,0.0361,0.0324,0.0345,
大田 (Ota),2018-10-21,19:01～20:00,0.0362,0.0319,0.0344,
大田 (Ota),2018-10-21,18:01～19:00,0.0363,0.0318,0.0341,
大田 (Ota),2018-10-21,17:01～18:00,0.0360,0.0330,0.0343,
大田 (Ota),2018-10-21,16:01～17:00,0.0361,0.0323,0.0341,
大田 (Ota),2018-10-21,15:01～16:00,0.0365,0.0325,0.0344,
大田 (Ota),2018-10-21,14:01～15:00,0.0366,0.0328,0.0346,
大田 (Ota),2018-10-21,13:01～14:00,0.0361,0.0329,0.0345,
大田 (Ota),2018-10-21,12:01～13:00,0.0357,0.0326,0.0341,
大田 (Ota),2018-10-21,11:01～12:00,0.0365,0.0320,0.0345,
大田 (Ota),2018-10-21,10:01～11:00,0.0356,0.0320,0.0341,
大田 (Ota),2018-10-21,09:01～10:00,0.0368,0.0318,0.0346,
大田 (Ota),2018-10-21,08:01～09:00,0.0366,0.0322,0.0345,
大田 (Ota),2018-10-21,07:01～08:00,0.0367,0.0313,0.0344,
大田 (Ota),2018-10-21,06:01～07:00,0.0364,0.0323,0.0344,
大田 (Ota),2018-10-21,05:01～06:00,0.0361,0.0326,0.0344,
大田 (Ota),2018-10-21,04:01～05:00,0.0361,0.0315,0.0342,
大田 (Ota),2018-10-21,03:01～04:00,0.0355,0.0314,0.0342,
大田 (Ota),2018-10-21,02:01～03:00,0.0356,0.0317,0.0341,
大田 (Ota),2018-10-21,01:01～02:00,0.0362,0.0327,0.0341,
大田 (Ota),2018-10-21,00:01～01:00,0.0363,0.0319,0.0343,
大田 (Ota),2018-10-20,23:01～24:00,0.0366,0.0322,0.0346,
大田 (Ota),2018-10-20,22:01～23:00,0.0404,0.0338,0.0360,
大田 (Ota),2018-10-20,21:01～22:00,0.0499,0.0367,0.0420,
大田 (Ota),2018-10-20,20:01～21:00,0.0639,0.0463,0.0561,
大田 (Ota),2018-10-20,19:01～20:00,0.0626,0.0503,0.0573,
大田 (Ota),2018-10-20,18:01～19:00,0.0514,0.0339,0.0414,
大田 (Ota),2018-10-20,16:01～17:00,0.0372,0.0332,0.0350,
大田 (Ota),2018-10-20,15:01～16:00,0.0377,0.0321,0.0351,
大田 (Ota),2018-10-20,14:01～15:00,0.0371,0.0330,0.0350,
大田 (Ota),2018-10-20,13:01～14:00,0.0372,0.0330,0.0349,
大田 (Ota),2018-10-20,12:01～13:00,0.0367,0.0326,0.0350,
大田 (Ota),2018-10-20,11:01～12:00,0.0365,0.0331,0.0348,
大田 (Ota),2018-10-20,10:01～11:00,0.0370,0.0326,0.0348,
大田 (Ota),2018-10-20,09:01～10:00,0.0367,0.0331,0.0350,
大田 (Ota),2018-10-20,08:01～09:00,0.0370,0.0327,0.0350,
大田 (Ota),2018-10-20,07:01～08:00,0.0365,0.0334,0.0350,
大田 (Ota),2018-10-20,06:01～07:00,0.0389,0.0329,0.0354,
大田 (Ota),2018-10-20,05:01～06:00,0.0370,0.0331,0.0351,
大田 (Ota),2018-10-20,04:01～05:00,0.0369,0.0325,0.0350,
大田 (Ota),2018-10-20,03:01～04:00,0.0369,0.0328,0.0349,
大田 (Ota),2018-10-20,02:01～03:00,0.0367,0.0329,0.0348,
大田 (Ota),2018-10-20,01:01～02:00,0.0371,0.0333,0.0348,
大田 (Ota),2018-10-20,00:01～01:00,0.0371,0.0326,0.0350,
大田 (Ota),2018-10-19,23:01～24:00,0.0371,0.0328,0.0350,
大田 (Ota),2018-10-19,22:01～23:00,0.0373,0.0326,0.0357,
大田 (Ota),2018-10-19,21:01～22:00,0.0369,0.0332,0.0352,
大田 (Ota),2018-10-19,20:01～21:00,0.0367,0.0327,0.0347,
大田 (Ota),2018-10-19,19:01～20:00,0.0370,0.0330,0.0347,
大田 (Ota),2018-10-19,18:01～19:00,0.0363,0.0325,0.0346,
大田 (Ota),2018-10-19,17:01～18:00,0.0373,0.0330,0.0348,
大田 (Ota),2018-10-19,16:01～17:00,0.0370,0.0323,0.0347,
大田 (Ota),2018-10-19,15:01～16:00,0.0374,0.0330,0.0351,
大田 (Ota),2018-10-19,14:01～15:00,0.0364,0.0325,0.0347,
大田 (Ota),2018-10-19,13:01～14:00,0.0374,0.0333,0.0351,
大田 (Ota),2018-10-19,12:01～13:00,0.0374,0.0328,0.0348,
大田 (Ota),2018-10-19,11:01～12:00,0.0370,0.0324,0.0349,
大田 (Ota),2018-10-19,10:01～11:00,0.0368,0.0329,0.0349,
大田 (Ota),2018-10-19,09:01～10:00,0.0370,0.0325,0.0347,
大田 (Ota),2018-10-19,08:01～09:00,0.0366,0.0331,0.0348,
大田 (Ota),2018-10-19,07:01～08:00,0.0372,0.0325,0.0354,
大田 (Ota),2018-10-19,06:01～07:00,0.0382,0.0331,0.0351,
大田 (Ota),2018-10-19,05:01～06:00,0.0383,0.0338,0.0357,
大田 (Ota),2018-10-19,04:01～05:00,0.0418,0.0346,0.0373,
大田 (Ota),2018-10-19,03:01～04:00,0.0471,0.0385,0.0422,
大田 (Ota),2018-10-19,02:01～03:00,0.0454,0.0326,0.0361,
大田 (Ota),2018-10-19,01:01～02:00,0.0374,0.0335,0.0350,
大田 (Ota),2018-10-19,00:01～01:00,0.0367,0.0327,0.0348,
大田 (Ota),2018-10-18,23:01～24:00,0.0366,0.0331,0.0350,
大田 (Ota),2018-10-18,22:01～23:00,0.0381,0.0330,0.0355,
大田 (Ota),2018-10-18,21:01～22:00,0.0373,0.0324,0.0347,
大田 (Ota),2018-10-18,20:01～21:00,0.0365,0.0326,0.0345,
大田 (Ota),2018-10-18,19:01～20:00,0.0367,0.0323,0.0346,
大田 (Ota),2018-10-18,18:01～19:00,0.0367,0.0328,0.0347,
大田 (Ota),2018-10-18,17:01～18:00,0.0370,0.0332,0.0349,
大田 (Ota),2018-10-18,16:01～17:00,0.0369,0.0326,0.0346,
大田 (Ota),2018-10-18,15:01～16:00,0.0366,0.0326,0.0349,
大田 (Ota),2018-10-18,14:01～15:00,0.0368,0.0322,0.0348,
大田 (Ota),2018-10-18,13:01～14:00,0.0369,0.0326,0.0348,
大田 (Ota),2018-10-18,12:01～13:00,0.0367,0.0331,0.0348,
大田 (Ota),2018-10-18,11:01～12:00,0.0364,0.0328,0.0348,
大田 (Ota),2018-10-18,10:01～11:00,0.0389,0.0327,0.0352,
大田 (Ota),2018-10-18,09:01～10:00,0.0372,0.0330,0.0352,
大田 (Ota),2018-10-18,08:01～09:00,0.0372,0.0325,0.0349,
大田 (Ota),2018-10-18,07:01～08:00,0.0370,0.0328,0.0349,
大田 (Ota),2018-10-18,06:01～07:00,0.0370,0.0330,0.0350,
大田 (Ota),2018-10-18,05:01～06:00,0.0374,0.0320,0.0346,
大田 (Ota),2018-10-18,04:01～05:00,0.0368,0.0326,0.0348,
大田 (Ota),2018-10-18,03:01～04:00,0.0370,0.0329,0.0347,
大田 (Ota),2018-10-18,02:01～03:00,0.0362,0.0321,0.0344,
大田 (Ota),2018-10-18,01:01～02:00,0.0384,0.0326,0.0347,
大田 (Ota),2018-10-18,00:01～01:00,0.0367,0.0328,0.0346,
大田 (Ota),2018-10-17,23:01～24:00,0.0365,0.0321,0.0345,
大田 (Ota),2018-10-17,22:01～23:00,0.0360,0.0325,0.0343,
大田 (Ota),2018-10-17,21:01～22:00,0.0365,0.0332,0.0348,
大田 (Ota),2018-10-17,20:01～21:00,0.0374,0.0328,0.0346,
大田 (Ota),2018-10-17,19:01～20:00,0.0365,0.0325,0.0347,
大田 (Ota),2018-10-17,18:01～19:00,0.0362,0.0332,0.0347,
大田 (Ota),2018-10-17,17:01～18:00,0.0371,0.0329,0.0350,
大田 (Ota),2018-10-17,16:01～17:00,0.0374,0.0324,0.0348,
大田 (Ota),2018-10-17,15:01～16:00,0.0371,0.0326,0.0345,
大田 (Ota),2018-10-17,14:01～15:00,0.0367,0.0319,0.0339,
大田 (Ota),2018-10-17,13:01～14:00,0.0373,0.0322,0.0336,
大田 (Ota),2018-10-17,12:01～13:00,0.0368,0.0325,0.0346,
大田 (Ota),2018-10-17,11:01～12:00,0.0367,0.0332,0.0345,
大田 (Ota),2018-10-17,10:01～11:00,0.0374,0.0326,0.0345,
大田 (Ota),2018-10-17,09:01～10:00,0.0368,0.0333,0.0350,
大田 (Ota),2018-10-17,08:01～09:00,0.0384,0.0331,0.0355,
大田 (Ota),2018-10-17,07:01～08:00,0.0386,0.0345,0.0363,
大田 (Ota),2018-10-17,06:01～07:00,0.0442,0.0356,0.0391,
大田 (Ota),2018-10-17,05:01～06:00,0.0465,0.0402,0.0430,
大田 (Ota),2018-10-17,04:01～05:00,0.0466,0.0369,0.0417,
大田 (Ota),2018-10-17,03:01～04:00,0.0428,0.0365,0.0391,
大田 (Ota),2018-10-17,02:01～03:00,0.0403,0.0349,0.0375,
大田 (Ota),2018-10-17,01:01～02:00,0.0472,0.0376,0.0423,
大田 (Ota),2018-10-17,00:01～01:00,0.0472,0.0360,0.0412,
大田 (Ota),2018-10-16,23:01～24:00,0.0368,0.0328,0.0349,
大田 (Ota),2018-10-16,22:01～23:00,0.0360,0.0324,0.0346,
大田 (Ota),2018-10-16,21:01～22:00,0.0370,0.0324,0.0346,
大田 (Ota),2018-10-16,20:01～21:00,0.0364,0.0325,0.0344,
大田 (Ota),2018-10-16,19:01～20:00,0.0364,0.0328,0.0343,
大田 (Ota),2018-10-16,18:01～19:00,0.0367,0.0327,0.0346,
大田 (Ota),2018-10-16,17:01～18:00,0.0364,0.0326,0.0349,
大田 (Ota),2018-10-16,16:01～17:00,0.0371,0.0330,0.0348,
大田 (Ota),2018-10-16,15:01～16:00,0.0372,0.0324,0.0348,
大田 (Ota),2018-10-16,14:01～15:00,0.0373,0.0331,0.0350,
大田 (Ota),2018-10-16,13:01～14:00,0.0369,0.0330,0.0352,
大田 (Ota),2018-10-16,12:01～13:00,0.0375,0.0335,0.0351,
大田 (Ota),2018-10-16,11:01～12:00,0.0380,0.0331,0.0351,
大田 (Ota),2018-10-16,10:01～11:00,0.0388,0.0332,0.0352,
大田 (Ota),2018-10-16,09:01～10:00,0.0368,0.0333,0.0351,
大田 (Ota),2018-10-16,08:01～09:00,0.0373,0.0329,0.0352,
大田 (Ota),2018-10-16,07:01～08:00,0.0372,0.0331,0.0351,
大田 (Ota),2018-10-16,06:01～07:00,0.0370,0.0337,0.0355,
大田 (Ota),2018-10-16,05:01～06:00,0.0369,0.0323,0.0351,
大田 (Ota),2018-10-16,04:01～05:00,0.0366,0.0316,0.0346,
大田 (Ota),2018-10-16,03:01～04:00,0.0376,0.0330,0.0349,
大田 (Ota),2018-10-16,02:01～03:00,0.0361,0.0318,0.0342,
大田 (Ota),2018-10-16,01:01～02:00,0.0364,0.0326,0.0346,
大田 (Ota),2018-10-16,00:01～01:00,0.0366,0.0326,0.0347,
大田 (Ota),2018-10-15,23:01～24:00,0.0373,0.0328,0.0349,
大田 (Ota),2018-10-15,22:01～23:00,0.0362,0.0325,0.0347,
大田 (Ota),2018-10-15,21:01～22:00,0.0406,0.0332,0.0351,
大田 (Ota),2018-10-15,20:01～21:00,0.0368,0.0326,0.0351,
大田 (Ota),2018-10-15,19:01～20:00,0.0368,0.0334,0.0350,
大田 (Ota),2018-10-15,18:01～19:00,0.0369,0.0326,0.0346,
大田 (Ota),2018-10-15,17:01～18:00,0.0370,0.0327,0.0348,
大田 (Ota),2018-10-15,16:01～17:00,0.0363,0.0321,0.0345,
大田 (Ota),2018-10-15,15:01～16:00,0.0364,0.0325,0.0346,
大田 (Ota),2018-10-15,14:01～15:00,0.0370,0.0329,0.0347,
大田 (Ota),2018-10-15,13:01～14:00,0.0372,0.0329,0.0353,
大田 (Ota),2018-10-15,12:01～13:00,0.0367,0.0321,0.0343,
大田 (Ota),2018-10-15,11:01～12:00,0.0365,0.0315,0.0344,
大田 (Ota),2018-10-15,10:01～11:00,0.0367,0.0330,0.0345,
大田 (Ota),2018-10-15,09:01～10:00,0.0361,0.0329,0.0345,
大田 (Ota),2018-10-15,08:01～09:00,0.0367,0.0326,0.0346,
大田 (Ota),2018-10-15,07:01～08:00,0.0367,0.0325,0.0343,
大田 (Ota),2018-10-15,06:01～07:00,0.0376,0.0316,0.0344,
大田 (Ota),2018-10-15,05:01～06:00,0.0370,0.0320,0.0344,
大田 (Ota),2018-10-15,04:01～05:00,0.0369,0.0329,0.0348,
大田 (Ota),2018-10-15,03:01～04:00,0.0371,0.0323,0.0343,
大田 (Ota),2018-10-15,02:01～03:00,0.0364,0.0325,0.0344,
大田 (Ota),2018-10-15,01:01～02:00,0.0366,0.0324,0.0343,
大田 (Ota),2018-10-15,00:01～01:00,0.0371,0.0326,0.0344,
